This is the latest recevied weather packets stored in our database for station/object ZS1DFR-1. If no packets are shown the sender has not sent any weather packets the latest 10 day(s).
| Time | Temp. | Humidity | Pressure | Rain* | Wind** | Luminosity | Snow |
|---|---|---|---|---|---|---|---|
| 1778078315 | 19.44° C | 68% | 1016.6 hPa | 0 mm | - | - | - |
| 1778077415 | 20° C | 67% | 1016.4 hPa | 0 mm | - | - | - |
| 1778076515 | 20° C | 67% | 1016.4 hPa | 0 mm | - | - | - |
| 1777974813 | 18.33° C | 76% | 1014.4 hPa | 0 mm | - | - | - |
| 1777973968 | 18.33° C | 76% | 1014.4 hPa | 0 mm | - | - | - |
| 1777973013 | 16.67° C | 88% | 1014.4 hPa | 0 mm | - | - | - |
| 1777972113 | 16.67° C | 88% | 1014.4 hPa | 0 mm | - | - | - |
| 1777971213 | 16.11° C | 99% | 1014.4 hPa | 0 mm | - | - | - |
| 1777970313 | 16.11° C | 99% | 1014.4 hPa | 0 mm | - | - | - |
| 1777969413 | 13.89° C | 99% | 1014.5 hPa | 0 mm | - | - | - |
| 1777968515 | 13.89° C | 99% | 1014.5 hPa | 0 mm | - | - | - |
| 1777967613 | 13.33° C | 99% | 1014.3 hPa | 0 mm | - | - | - |
| 1777966713 | 13.33° C | 99% | 1014.3 hPa | 0 mm | - | - | - |
| 1777965813 | 12.22° C | 99% | 1013.8 hPa | 0 mm | - | - | - |
| 1777964949 | 12.22° C | 99% | 1013.8 hPa | 0 mm | - | - | - |
| 1777964013 | 12.78° C | 99% | 1013.4 hPa | 0 mm | - | - | - |
| 1777963113 | 12.78° C | 99% | 1013.4 hPa | 0 mm | - | - | - |
| 1777962213 | 11.11° C | 99% | 1013.3 hPa | 0 mm | - | - | - |
| 1777961314 | 11.11° C | 99% | 1013.3 hPa | 0 mm | - | - | - |
| 1777960413 | 11.11° C | 99% | 1013.2 hPa | 0 mm | - | - | - |
| 1777959513 | 11.11° C | 99% | 1013.2 hPa | 0 mm | - | - | - |
| 1777958613 | 10.56° C | 99% | 1012.7 hPa | 0 mm | - | - | - |
| 1777957713 | 10.56° C | 99% | 1012.7 hPa | 0 mm | - | - | - |
| 1777956813 | 11.11° C | 99% | 1012.6 hPa | 0 mm | - | - | - |
| 1777955913 | 11.11° C | 99% | 1012.6 hPa | 0 mm | - | - | - |
* Rain latest hour (hover to see other rain measurements)
** Current wind speed in m/s (hover to see current wind gust speed)